Terminal Aerodrome Forecast
Issued by NWS

Home | Current Version | Previous Version | Graphics & Text | Print | Product List | Glossary On
Versions: 1 2 3 4 5 6 7 8 9 10 11 12 13 14 15 16
000
FTUS43 KBIS 272300
TAFMOT
TAF
KMOT 272338Z 2800/2824 15005KT P6SM SCT250
     FM281000 23008KT P6SM SCT050 BKN120
     FM281300 27010KT P6SM SCT040 BKN100
     FM281800 27014KT P6SM SCT100=

USA.gov is the U.S. government's official web portal to all federal, state and local government web resources and services.